CGF10 ORBI-HLLB

Flight info

Callsign CGF10
Flight time N/A
Altitude 36000
Route SILBO DCT 333353N0395029E 341001N0391751E DCT OSPR DCT NIKAS DCT LCA DCT PHA DCT MAROS DCT OTHON DCT GUDIS DCT 333800N0250631E DCT VUSOR DCT 325250N0221900E DCT HLLQ/N0434F370 DCT LAB LAB1B
Aircraft B738/M-SDE2E3FGHIRWXY/LB1

Departure

Time 2026-05-06 12:40
Airport Baghdad International Airport / New Al Muthana Air Base (ORBI)

Arrival

Time N/A
Airport Benina International Airport (HLLB)
Time Latitude Longitude Altitude Speed Heading
2026-05-06 12:14 33.26112 44.24188 139 ft 0 kts 240°
2026-05-06 12:33 33.26114 44.24192 139 ft 2 kts 240°
2026-05-06 12:33 33.26122 44.24209 139 ft 2 kts 240°
2026-05-06 12:33 33.26130 44.24226 139 ft 2 kts 240°
2026-05-06 12:33 33.26137 44.24243 139 ft 2 kts 260°
2026-05-06 12:34 33.26137 44.24262 139 ft 2 kts 292°
2026-05-06 12:34 33.26128 44.24279 139 ft 2 kts 317°
2026-05-06 12:34 33.26118 44.24287 139 ft 0 kts 329°
2026-05-06 12:36 33.26121 44.24285 139 ft 2 kts 329°
2026-05-06 12:36 33.26148 44.24266 139 ft 8 kts 329°
2026-05-06 12:36 33.26213 44.24268 139 ft 13 kts 32°
2026-05-06 12:37 33.26198 44.24357 139 ft 14 kts 149°
2026-05-06 12:37 33.26104 44.24419 139 ft 18 kts 150°
2026-05-06 12:37 33.25996 44.24494 139 ft 18 kts 150°
2026-05-06 12:37 33.25892 44.24566 139 ft 17 kts 149°
2026-05-06 12:38 33.25774 44.24648 139 ft 22 kts 151°
2026-05-06 12:38 33.25645 44.24734 139 ft 21 kts 149°
2026-05-06 12:38 33.25521 44.24822 138 ft 20 kts 149°
2026-05-06 12:38 33.25402 44.24906 138 ft 20 kts 150°
2026-05-06 12:39 33.25284 44.24986 138 ft 19 kts 150°
2026-05-06 12:39 33.25199 44.25090 138 ft 18 kts 83°
2026-05-06 12:39 33.25263 44.25216 137 ft 18 kts 25°
2026-05-06 12:39 33.25383 44.25174 137 ft 23 kts 331°
2026-05-06 12:40 33.25720 44.24940 139 ft 91 kts 329°
2026-05-06 12:40 33.26456 44.24438 138 ft 151 kts 332°
2026-05-06 12:40 33.27479 44.23725 395 ft 181 kts 324°
2026-05-06 12:40 33.28282 44.22618 1149 ft 180 kts 287°
2026-05-06 12:41 33.28242 44.21184 2059 ft 178 kts 254°
2026-05-06 12:41 33.27660 44.19762 2574 ft 198 kts 242°
2026-05-06 12:41 33.27203 44.18782 3037 ft 201 kts 246°
2026-05-06 12:41 33.26558 44.17207 3377 ft 222 kts 246°
2026-05-06 12:42 33.25841 44.15475 3760 ft 238 kts 245°
2026-05-06 12:42 33.25068 44.13665 4232 ft 253 kts 245°
2026-05-06 12:42 33.24239 44.11675 4327 ft 284 kts 245°
2026-05-06 12:42 33.23307 44.09500 4744 ft 304 kts 244°
2026-05-06 12:43 33.22644 44.07211 6143 ft 279 kts 267°
2026-05-06 12:43 33.22831 44.05056 7913 ft 248 kts 280°
2026-05-06 12:43 33.23270 44.03074 8891 ft 250 kts 282°
2026-05-06 12:43 33.23795 44.01024 9390 ft 264 kts 283°
2026-05-06 12:44 33.24357 43.98905 10059 ft 271 kts 283°
2026-05-06 12:44 33.24941 43.96695 10433 ft 290 kts 283°
2026-05-06 12:44 33.25565 43.94305 10614 ft 313 kts 283°
2026-05-06 12:44 33.26231 43.91744 10899 ft 330 kts 283°
2026-05-06 12:45 33.26918 43.89095 11514 ft 335 kts 283°
2026-05-06 12:45 33.27610 43.86425 12259 ft 337 kts 283°
2026-05-06 12:45 33.28986 43.81075 13696 ft 341 kts 282°
2026-05-06 12:46 33.29682 43.78353 14328 ft 343 kts 282°
2026-05-06 12:46 33.30382 43.75609 14927 ft 346 kts 282°
2026-05-06 12:46 33.31086 43.72839 15532 ft 349 kts 281°
2026-05-06 12:46 33.31795 43.70046 16148 ft 352 kts 281°
2026-05-06 12:47 33.32506 43.67240 16749 ft 354 kts 281°
2026-05-06 12:47 33.33222 43.64409 17336 ft 357 kts 281°
2026-05-06 12:47 33.33944 43.61554 17922 ft 360 kts 281°
2026-05-06 12:47 33.34670 43.58678 18467 ft 363 kts 281°
2026-05-06 12:48 33.35402 43.55775 18973 ft 365 kts 280°
2026-05-06 12:48 33.36128 43.52894 19513 ft 366 kts 280°
2026-05-06 12:48 33.36873 43.49936 20054 ft 368 kts 280°
2026-05-06 12:48 33.37611 43.47000 20558 ft 370 kts 280°
2026-05-06 12:49 33.38345 43.44081 21086 ft 371 kts 280°
2026-05-06 12:49 33.39092 43.41103 21599 ft 373 kts 280°
2026-05-06 12:49 33.39838 43.38123 22086 ft 375 kts 280°
2026-05-06 12:49 33.40589 43.35123 22553 ft 377 kts 280°
2026-05-06 12:50 33.41343 43.32106 23025 ft 379 kts 280°
2026-05-06 12:50 33.42099 43.29075 23494 ft 381 kts 280°
2026-05-06 12:50 33.42858 43.26033 23901 ft 383 kts 279°
2026-05-06 12:50 33.43612 43.23008 24272 ft 384 kts 279°
2026-05-06 12:51 33.44378 43.19928 24637 ft 386 kts 279°
2026-05-06 12:51 33.45147 43.16836 25002 ft 388 kts 279°
2026-05-06 12:51 33.45919 43.13722 25354 ft 390 kts 279°
2026-05-06 12:51 33.46696 43.10592 25702 ft 392 kts 279°
2026-05-06 12:52 33.47476 43.07442 26053 ft 394 kts 279°
2026-05-06 12:52 33.48255 43.04292 26392 ft 396 kts 279°
2026-05-06 12:52 33.49039 43.01119 26719 ft 398 kts 279°
2026-05-06 12:52 33.49823 42.97943 27039 ft 400 kts 279°
2026-05-06 12:53 33.50611 42.94742 27347 ft 402 kts 279°
2026-05-06 12:53 33.51405 42.91520 27652 ft 404 kts 279°
2026-05-06 12:53 33.52200 42.88285 27966 ft 406 kts 279°
2026-05-06 12:53 33.52998 42.85036 28269 ft 407 kts 279°
2026-05-06 12:54 33.53799 42.81770 28578 ft 409 kts 279°
2026-05-06 12:54 33.54603 42.78486 28865 ft 411 kts 279°
2026-05-06 12:54 33.55408 42.75197 29208 ft 411 kts 279°
2026-05-06 12:54 33.56213 42.71910 29652 ft 409 kts 279°
2026-05-06 12:55 33.57002 42.68684 30114 ft 406 kts 279°
2026-05-06 12:55 33.57796 42.65435 30474 ft 405 kts 279°
2026-05-06 12:55 33.58585 42.62196 30810 ft 404 kts 279°
2026-05-06 12:55 33.59370 42.58967 31165 ft 402 kts 279°
2026-05-06 12:56 33.60150 42.55755 31540 ft 400 kts 279°
2026-05-06 12:56 33.60925 42.52564 31904 ft 398 kts 279°
2026-05-06 12:56 33.61696 42.49380 32243 ft 396 kts 279°
2026-05-06 12:56 33.62463 42.46207 32563 ft 395 kts 279°
2026-05-06 12:57 33.63216 42.43088 32887 ft 394 kts 279°
2026-05-06 12:57 33.63976 42.39939 33239 ft 392 kts 279°
2026-05-06 12:57 33.64724 42.36834 33562 ft 390 kts 279°
2026-05-06 12:57 33.65479 42.33699 33869 ft 389 kts 278°
2026-05-06 12:58 33.66227 42.30585 34155 ft 388 kts 278°
2026-05-06 12:58 33.66975 42.27469 34341 ft 388 kts 278°
2026-05-06 12:58 33.67721 42.24352 34516 ft 389 kts 278°
2026-05-06 12:58 33.68469 42.21228 34713 ft 389 kts 278°
2026-05-06 12:59 33.69215 42.18108 34933 ft 389 kts 278°
2026-05-06 12:59 33.69960 42.14987 35108 ft 389 kts 278°
2026-05-06 12:59 33.70707 42.11856 35257 ft 391 kts 278°
2026-05-06 12:59 33.71446 42.08752 35422 ft 391 kts 278°
2026-05-06 13:00 33.72195 42.05608 35622 ft 391 kts 278°
2026-05-06 13:00 33.72940 42.02474 35811 ft 391 kts 278°
2026-05-06 13:00 33.73686 41.99334 35968 ft 391 kts 278°
2026-05-06 13:01 33.75182 41.93019 36015 ft 393 kts 278°
2026-05-06 13:01 33.76667 41.86745 36006 ft 391 kts 278°
2026-05-06 13:02 33.78148 41.80472 36014 ft 389 kts 278°
2026-05-06 13:02 33.79620 41.74218 36005 ft 388 kts 278°
2026-05-06 13:03 33.81084 41.67978 36006 ft 388 kts 278°
2026-05-06 13:03 33.82545 41.61733 36016 ft 387 kts 278°
2026-05-06 13:04 33.84001 41.55497 36011 ft 388 kts 278°
2026-05-06 13:04 33.85447 41.49287 36012 ft 388 kts 278°
2026-05-06 13:05 33.86902 41.43022 36010 ft 389 kts 278°
2026-05-06 13:05 33.88358 41.36740 36017 ft 390 kts 278°
2026-05-06 13:06 33.89814 41.30441 36011 ft 391 kts 278°
2026-05-06 13:06 33.91271 41.24124 36012 ft 392 kts 278°
2026-05-06 13:07 33.92727 41.17793 36013 ft 393 kts 278°
2026-05-06 13:07 33.94182 41.11452 36008 ft 393 kts 278°
2026-05-06 13:08 33.95635 41.05103 36009 ft 393 kts 278°
2026-05-06 13:08 33.97086 40.98746 36008 ft 393 kts 278°
2026-05-06 13:09 33.98522 40.92439 36010 ft 392 kts 278°
2026-05-06 13:09 33.99963 40.86094 36010 ft 392 kts 278°
2026-05-06 13:10 34.01398 40.79759 36016 ft 391 kts 278°
2026-05-06 13:10 34.02829 40.73425 36016 ft 391 kts 278°
2026-05-06 13:11 34.04243 40.67149 36011 ft 390 kts 278°
2026-05-06 13:11 34.05661 40.60838 36007 ft 390 kts 278°
2026-05-06 13:12 34.07075 40.54528 36013 ft 389 kts 278°
2026-05-06 13:12 34.08483 40.48228 36018 ft 389 kts 278°
2026-05-06 13:13 34.09886 40.41931 36013 ft 389 kts 278°
2026-05-06 13:13 34.11192 40.35607 36006 ft 384 kts 271°
2026-05-06 13:14 34.11780 40.29224 36010 ft 382 kts 270°
2026-05-06 13:14 34.12324 40.22876 36015 ft 383 kts 270°
2026-05-06 13:15 34.12889 40.16453 36012 ft 384 kts 270°
2026-05-06 13:15 34.13459 40.10077 36019 ft 385 kts 270°
2026-05-06 13:16 34.14037 40.03637 36016 ft 386 kts 270°
2026-05-06 13:16 34.14615 39.97186 36019 ft 386 kts 270°
2026-05-06 13:17 34.15186 39.90762 36012 ft 387 kts 270°
2026-05-06 13:17 34.15758 39.84300 36016 ft 387 kts 270°
2026-05-06 13:18 34.16327 39.77827 36011 ft 387 kts 270°
2026-05-06 13:18 34.16893 39.71359 36012 ft 387 kts 270°
2026-05-06 13:19 34.17419 39.64904 36015 ft 385 kts 267°
2026-05-06 13:19 34.17423 39.58461 36015 ft 383 kts 265°
2026-05-06 13:20 34.17338 39.52032 36016 ft 383 kts 265°
2026-05-06 13:20 34.17265 39.45609 36019 ft 382 kts 265°
2026-05-06 13:21 34.17207 39.39189 36022 ft 382 kts 265°
2026-05-06 13:21 34.17153 39.32767 36022 ft 382 kts 265°
2026-05-06 13:22 34.17099 39.26341 36022 ft 383 kts 265°
2026-05-06 13:22 34.17042 39.19912 36019 ft 383 kts 265°
2026-05-06 13:23 34.16981 39.13484 36019 ft 383 kts 265°
2026-05-06 13:23 34.16918 39.07084 36015 ft 383 kts 265°
2026-05-06 13:24 34.16851 39.00652 36020 ft 383 kts 265°
2026-05-06 13:24 34.16780 38.94201 36018 ft 384 kts 265°
2026-05-06 13:25 34.16706 38.87757 36019 ft 384 kts 265°
2026-05-06 13:25 34.16629 38.81331 36022 ft 384 kts 265°
2026-05-06 13:26 34.16547 38.74858 36021 ft 385 kts 265°
2026-05-06 13:26 34.16463 38.68390 36019 ft 385 kts 265°
2026-05-06 13:27 34.16375 38.61907 36019 ft 385 kts 265°
2026-05-06 13:27 34.16284 38.55466 36020 ft 386 kts 265°
2026-05-06 13:28 34.16189 38.48988 36018 ft 386 kts 265°
2026-05-06 13:28 34.16091 38.42514 36014 ft 386 kts 265°
2026-05-06 13:29 34.15989 38.36038 36013 ft 386 kts 265°
2026-05-06 13:29 34.15885 38.29590 36013 ft 386 kts 265°
2026-05-06 13:30 34.15776 38.23106 36014 ft 386 kts 266°
2026-05-06 13:30 34.15683 38.17715 36013 ft 386 kts 266°
2026-05-06 13:31 34.15568 38.11215 36014 ft 387 kts 266°
2026-05-06 13:31 34.15450 38.04715 36013 ft 387 kts 266°
2026-05-06 13:32 34.15328 37.98204 36020 ft 388 kts 266°
2026-05-06 13:32 34.15202 37.91678 36021 ft 389 kts 266°
2026-05-06 13:33 34.15072 37.85144 36020 ft 389 kts 266°
2026-05-06 13:33 34.14939 37.78600 36018 ft 390 kts 266°
2026-05-06 13:34 34.14803 37.72095 36024 ft 390 kts 266°
2026-05-06 13:34 34.14663 37.65535 36020 ft 391 kts 266°
2026-05-06 13:35 34.14519 37.58974 36017 ft 391 kts 266°
2026-05-06 13:35 34.14371 37.52399 36021 ft 391 kts 266°
2026-05-06 13:36 34.14221 37.45846 36024 ft 390 kts 266°
2026-05-06 13:36 34.14067 37.39295 36021 ft 390 kts 266°
2026-05-06 13:37 34.13909 37.32745 36020 ft 390 kts 266°
2026-05-06 13:37 34.13748 37.26195 36022 ft 390 kts 266°
2026-05-06 13:38 34.13583 37.19648 36023 ft 390 kts 266°
2026-05-06 13:38 34.13415 37.13107 36029 ft 390 kts 266°
2026-05-06 13:39 34.13244 37.06567 36025 ft 390 kts 266°
2026-05-06 13:39 34.13070 37.00059 36020 ft 389 kts 266°
2026-05-06 13:40 34.12892 36.93533 36030 ft 389 kts 267°
2026-05-06 13:40 34.12710 36.86999 36039 ft 390 kts 267°
2026-05-06 13:41 34.12525 36.80445 36034 ft 391 kts 267°
2026-05-06 13:41 34.12337 36.73923 36038 ft 391 kts 267°
2026-05-06 13:42 34.12144 36.67352 36038 ft 392 kts 267°
2026-05-06 13:42 34.11947 36.60768 36037 ft 392 kts 267°
2026-05-06 13:43 34.11746 36.54179 36031 ft 393 kts 267°
2026-05-06 13:43 34.11541 36.47568 36034 ft 394 kts 267°
2026-05-06 13:44 34.11333 36.40951 36040 ft 394 kts 267°
2026-05-06 13:44 34.11121 36.34354 36051 ft 394 kts 267°
2026-05-06 13:45 34.10907 36.27796 36041 ft 394 kts 267°
2026-05-06 13:45 34.10577 36.17875 36046 ft 394 kts 267°
2026-05-06 13:46 34.10353 36.11278 36050 ft 393 kts 267°
2026-05-06 13:46 34.10128 36.04735 36052 ft 392 kts 267°
2026-05-06 13:47 34.09897 35.98147 36068 ft 390 kts 267°
2026-05-06 13:47 34.09665 35.91598 36070 ft 390 kts 267°
2026-05-06 13:48 34.09430 35.85081 36070 ft 391 kts 267°
2026-05-06 13:48 34.09190 35.78529 36075 ft 391 kts 268°
2026-05-06 13:49 34.08946 35.71968 36076 ft 391 kts 268°
2026-05-06 13:49 34.08699 35.65401 36080 ft 392 kts 268°
2026-05-06 13:50 34.08448 35.58841 36076 ft 392 kts 268°
2026-05-06 13:50 34.08193 35.52268 36075 ft 391 kts 268°
2026-05-06 13:51 34.07936 35.45720 36076 ft 391 kts 268°
2026-05-06 13:51 34.07678 35.39221 36075 ft 390 kts 268°
2026-05-06 13:52 34.07414 35.32675 36075 ft 390 kts 268°
2026-05-06 13:52 34.07146 35.26139 36073 ft 390 kts 268°
2026-05-06 13:53 34.06876 35.19602 36073 ft 390 kts 268°
2026-05-06 13:53 34.06602 35.13080 36075 ft 390 kts 268°
2026-05-06 13:54 34.06325 35.06547 36074 ft 390 kts 267°
2026-05-06 13:54 34.06046 35.00061 36069 ft 390 kts 268°
2026-05-06 13:55 34.05762 34.93531 36070 ft 390 kts 268°
2026-05-06 13:55 34.05473 34.86983 36070 ft 390 kts 268°
2026-05-06 13:56 34.05183 34.80481 36071 ft 390 kts 268°
2026-05-06 13:56 34.04888 34.73940 36070 ft 390 kts 268°
2026-05-06 13:57 34.04589 34.67394 36069 ft 390 kts 268°
2026-05-06 13:57 34.04288 34.60863 36070 ft 390 kts 268°
2026-05-06 13:58 34.03982 34.54317 36070 ft 390 kts 268°
2026-05-06 13:58 34.03673 34.47776 36071 ft 390 kts 267°
2026-05-06 13:59 34.03361 34.41248 36070 ft 390 kts 267°
2026-05-06 13:59 34.03046 34.34736 36070 ft 390 kts 267°
2026-05-06 14:00 34.02727 34.28204 36071 ft 390 kts 267°
2026-05-06 14:00 34.02404 34.21663 36068 ft 390 kts 267°
2026-05-06 14:01 34.02078 34.15129 36073 ft 390 kts 267°
2026-05-06 14:01 34.01751 34.08639 36069 ft 390 kts 267°
2026-05-06 14:02 34.01418 34.02106 36073 ft 390 kts 267°
2026-05-06 14:02 34.01082 33.95579 36070 ft 390 kts 267°
2026-05-06 14:03 34.00742 33.89055 36070 ft 390 kts 267°
2026-05-06 14:03 34.00401 33.82567 36068 ft 390 kts 267°
2026-05-06 14:04 34.00055 33.76039 36069 ft 390 kts 267°
2026-05-06 14:04 33.99704 33.69503 36068 ft 391 kts 267°
2026-05-06 14:05 33.99350 33.62962 36067 ft 391 kts 267°
2026-05-06 14:05 33.98991 33.56404 36072 ft 391 kts 267°
2026-05-06 14:06 33.98632 33.49889 36072 ft 392 kts 267°
2026-05-06 14:06 33.98265 33.43310 36072 ft 392 kts 267°
2026-05-06 14:07 33.97895 33.36747 36070 ft 392 kts 267°
2026-05-06 14:07 33.97524 33.30222 36068 ft 393 kts 267°
2026-05-06 14:08 33.97147 33.23649 36070 ft 393 kts 267°
2026-05-06 14:08 33.96766 33.17074 36074 ft 393 kts 267°
2026-05-06 14:09 33.96383 33.10515 36072 ft 393 kts 267°
2026-05-06 14:09 33.95999 33.03995 36073 ft 393 kts 267°
2026-05-06 14:10 33.95608 32.97431 36074 ft 392 kts 267°
2026-05-06 14:10 33.95214 32.90869 36069 ft 392 kts 267°
2026-05-06 14:11 33.94816 32.84304 36069 ft 392 kts 267°
2026-05-06 14:11 33.94418 32.77790 36073 ft 392 kts 267°
2026-05-06 14:12 33.94014 32.71236 36073 ft 392 kts 267°
2026-05-06 14:12 33.93606 32.64683 36073 ft 392 kts 267°
2026-05-06 14:13 33.93195 32.58127 36068 ft 392 kts 267°
2026-05-06 14:13 33.92783 32.51613 36073 ft 392 kts 267°
2026-05-06 14:14 33.92365 32.45065 36068 ft 392 kts 267°
2026-05-06 14:14 33.91945 32.38534 36075 ft 392 kts 267°
2026-05-06 14:15 33.91521 32.31994 36077 ft 392 kts 267°
2026-05-06 14:15 33.91093 32.25456 36070 ft 392 kts 267°
2026-05-06 14:16 33.90734 32.20009 36075 ft 392 kts 267°
2026-05-06 14:16 33.90300 32.13462 36072 ft 392 kts 267°
2026-05-06 14:17 33.89862 32.06923 36074 ft 391 kts 267°
2026-05-06 14:17 33.89421 32.00388 36071 ft 391 kts 267°
2026-05-06 14:18 33.88980 31.93900 36071 ft 391 kts 267°
2026-05-06 14:18 33.88532 31.87351 36072 ft 391 kts 267°
2026-05-06 14:19 33.88081 31.80821 36070 ft 391 kts 268°
2026-05-06 14:19 33.87629 31.74325 36074 ft 391 kts 268°
2026-05-06 14:20 33.87170 31.67789 36069 ft 391 kts 268°
2026-05-06 14:20 33.86712 31.61306 36073 ft 391 kts 268°
2026-05-06 14:21 33.86248 31.54783 36073 ft 391 kts 268°
2026-05-06 14:21 33.85780 31.48255 36073 ft 391 kts 268°
2026-05-06 14:22 33.85308 31.41732 36074 ft 391 kts 268°
2026-05-06 14:22 33.84837 31.35250 36077 ft 391 kts 268°
2026-05-06 14:23 33.84359 31.28731 36075 ft 391 kts 268°
2026-05-06 14:23 33.83877 31.22210 36068 ft 391 kts 268°
2026-05-06 14:24 33.83391 31.15673 36070 ft 392 kts 268°
2026-05-06 14:24 33.82902 31.09149 36071 ft 392 kts 268°
2026-05-06 14:25 33.82409 31.02612 36070 ft 392 kts 268°
2026-05-06 14:25 33.81916 30.96126 36081 ft 392 kts 268°
2026-05-06 14:26 33.81416 30.89588 36081 ft 392 kts 268°
2026-05-06 14:26 33.80911 30.83046 36080 ft 393 kts 268°
2026-05-06 14:27 33.80403 30.76499 36075 ft 393 kts 268°
2026-05-06 14:27 33.79892 30.69952 36074 ft 393 kts 268°
2026-05-06 14:28 33.79379 30.63435 36074 ft 394 kts 268°
2026-05-06 14:28 33.78859 30.56872 36075 ft 394 kts 268°
2026-05-06 14:29 33.78335 30.50299 36076 ft 395 kts 268°
2026-05-06 14:29 33.77807 30.43721 36077 ft 395 kts 268°
2026-05-06 14:30 33.77275 30.37148 36075 ft 395 kts 267°
2026-05-06 14:30 33.76740 30.30569 36079 ft 396 kts 267°
2026-05-06 14:31 33.76204 30.24027 36077 ft 396 kts 267°
2026-05-06 14:31 33.75661 30.17433 36081 ft 396 kts 267°
2026-05-06 14:32 33.75113 30.10835 36082 ft 397 kts 267°
2026-05-06 14:32 33.74562 30.04237 36078 ft 397 kts 267°
2026-05-06 14:33 33.74006 29.97626 36080 ft 397 kts 267°
2026-05-06 14:33 33.73447 29.91016 36081 ft 397 kts 267°
2026-05-06 14:34 33.72888 29.84452 36079 ft 398 kts 267°
2026-05-06 14:34 33.72321 29.77844 36083 ft 398 kts 267°
2026-05-06 14:35 33.71750 29.71226 36083 ft 398 kts 267°
2026-05-06 14:35 33.71176 29.64606 36081 ft 398 kts 267°
2026-05-06 14:36 33.70597 29.57981 36087 ft 399 kts 267°
2026-05-06 14:36 33.70015 29.51353 36089 ft 399 kts 267°
2026-05-06 14:37 33.69432 29.44767 36083 ft 399 kts 266°
2026-05-06 14:37 33.68842 29.38136 36079 ft 400 kts 266°
2026-05-06 14:38 33.68247 29.31487 36088 ft 400 kts 266°
2026-05-06 14:38 33.67648 29.24843 36085 ft 400 kts 266°
2026-05-06 14:39 33.67045 29.18182 36083 ft 401 kts 266°
2026-05-06 14:39 33.66441 29.11564 36091 ft 401 kts 266°
2026-05-06 14:40 33.65829 29.04888 36091 ft 402 kts 266°
2026-05-06 14:40 33.65214 28.98219 36079 ft 402 kts 266°
2026-05-06 14:41 33.64595 28.91553 36079 ft 402 kts 266°
2026-05-06 14:41 33.63975 28.84917 36091 ft 402 kts 266°
2026-05-06 14:42 33.63349 28.78247 36091 ft 402 kts 266°
2026-05-06 14:42 33.62719 28.71578 36088 ft 402 kts 266°
2026-05-06 14:43 33.62088 28.64937 36090 ft 402 kts 266°
2026-05-06 14:43 33.61450 28.58258 36091 ft 402 kts 266°
2026-05-06 14:44 33.60808 28.51580 36091 ft 402 kts 266°
2026-05-06 14:45 33.59839 28.41568 36093 ft 402 kts 266°
2026-05-06 14:45 33.59192 28.34933 36093 ft 403 kts 265°
2026-05-06 14:46 33.58538 28.28263 36094 ft 403 kts 265°
2026-05-06 14:46 33.57878 28.21570 36096 ft 403 kts 265°
2026-05-06 14:47 33.57220 28.14932 36097 ft 403 kts 265°
2026-05-06 14:47 33.56553 28.08243 36096 ft 403 kts 265°
2026-05-06 14:48 33.55882 28.01556 36098 ft 404 kts 265°
2026-05-06 14:48 33.55212 27.94903 36099 ft 404 kts 265°
2026-05-06 14:49 33.54533 27.88203 36099 ft 404 kts 265°
2026-05-06 14:49 33.53850 27.81510 36098 ft 405 kts 265°
2026-05-06 14:50 33.53164 27.74807 36096 ft 405 kts 265°
2026-05-06 14:50 33.52473 27.68100 36097 ft 405 kts 265°
2026-05-06 14:51 33.51778 27.61390 36101 ft 405 kts 265°
2026-05-06 14:51 33.51083 27.54720 36100 ft 406 kts 265°
2026-05-06 14:52 33.50380 27.48004 36101 ft 406 kts 265°
2026-05-06 14:52 33.49673 27.41284 36104 ft 406 kts 265°
2026-05-06 14:53 33.48964 27.34581 36106 ft 407 kts 264°
2026-05-06 14:53 33.48248 27.27855 36103 ft 407 kts 264°
2026-05-06 14:54 33.47530 27.21133 36105 ft 407 kts 264°
2026-05-06 14:54 33.46806 27.14397 36105 ft 407 kts 264°
2026-05-06 14:55 33.46079 27.07669 36107 ft 407 kts 264°
2026-05-06 14:55 33.45348 27.00936 36108 ft 407 kts 264°
2026-05-06 14:56 33.44618 26.94250 36110 ft 408 kts 264°
2026-05-06 14:56 33.43879 26.87511 36101 ft 408 kts 264°
2026-05-06 14:57 33.43137 26.80782 36113 ft 408 kts 264°
2026-05-06 14:57 33.42390 26.74043 36112 ft 408 kts 264°
2026-05-06 14:58 33.41640 26.67316 36113 ft 408 kts 264°
2026-05-06 14:58 33.40887 26.60588 36115 ft 408 kts 264°
2026-05-06 14:59 33.40130 26.53856 36115 ft 408 kts 264°
2026-05-06 14:59 33.39374 26.47173 36114 ft 408 kts 264°
2026-05-06 15:00 33.38608 26.40431 36116 ft 408 kts 264°
2026-05-06 15:00 33.37840 26.33702 36115 ft 408 kts 264°
2026-05-06 15:01 33.37067 26.26964 36116 ft 408 kts 264°
2026-05-06 15:01 33.36297 26.20285 36114 ft 408 kts 264°
2026-05-06 15:02 33.35518 26.13561 36120 ft 408 kts 264°
2026-05-06 15:02 33.34735 26.06839 36125 ft 408 kts 264°
2026-05-06 15:03 33.33950 26.00122 36116 ft 408 kts 264°
2026-05-06 15:03 33.33163 25.93431 36118 ft 408 kts 264°
2026-05-06 15:04 33.32499 25.87803 36114 ft 408 kts 264°
2026-05-06 15:04 33.31706 25.81114 36118 ft 408 kts 264°
2026-05-06 15:05 33.30906 25.74400 36116 ft 408 kts 264°
2026-05-06 15:05 33.30102 25.67680 36116 ft 408 kts 264°
2026-05-06 15:06 33.29298 25.60998 36119 ft 408 kts 263°
2026-05-06 15:06 33.28487 25.54278 36121 ft 408 kts 263°
2026-05-06 15:07 33.27672 25.47563 36121 ft 408 kts 263°
2026-05-06 15:07 33.26852 25.40836 36121 ft 408 kts 263°
2026-05-06 15:08 33.26029 25.34115 36123 ft 408 kts 263°
2026-05-06 15:08 33.25202 25.27397 36123 ft 409 kts 263°
2026-05-06 15:09 33.24376 25.20711 36123 ft 409 kts 263°
2026-05-06 15:09 33.23541 25.13992 36123 ft 409 kts 263°
2026-05-06 15:10 33.22703 25.07266 36119 ft 409 kts 263°
2026-05-06 15:10 33.21858 25.00528 36120 ft 409 kts 263°
2026-05-06 15:11 33.21013 24.93805 36123 ft 409 kts 263°
2026-05-06 15:11 33.20162 24.87077 36120 ft 409 kts 263°
2026-05-06 15:12 33.19313 24.80386 36121 ft 410 kts 263°
2026-05-06 15:12 33.18455 24.73657 36123 ft 410 kts 263°
2026-05-06 15:13 33.17594 24.66936 36124 ft 410 kts 263°
2026-05-06 15:13 33.16729 24.60216 36124 ft 409 kts 263°
2026-05-06 15:14 33.15861 24.53495 36121 ft 409 kts 263°
2026-05-06 15:14 33.14988 24.46772 36123 ft 409 kts 263°
2026-05-06 15:15 33.14119 24.40101 36120 ft 409 kts 263°
2026-05-06 15:15 33.13241 24.33397 36118 ft 409 kts 263°
2026-05-06 15:16 33.12359 24.26688 36120 ft 409 kts 263°
2026-05-06 15:16 33.11475 24.19989 36121 ft 408 kts 263°
2026-05-06 15:17 33.10587 24.13289 36118 ft 408 kts 263°
2026-05-06 15:17 33.09702 24.06643 36113 ft 408 kts 263°
2026-05-06 15:18 33.08808 23.99959 36118 ft 408 kts 263°
2026-05-06 15:18 33.07914 23.93301 36117 ft 407 kts 262°
2026-05-06 15:19 33.07015 23.86632 36117 ft 407 kts 262°
2026-05-06 15:19 33.06111 23.79950 36118 ft 407 kts 262°
2026-05-06 15:20 33.05205 23.73290 36117 ft 407 kts 262°
2026-05-06 15:20 33.04300 23.66658 36113 ft 407 kts 262°
2026-05-06 15:21 33.03388 23.60003 36119 ft 407 kts 262°
2026-05-06 15:21 33.02473 23.53350 36115 ft 407 kts 262°
2026-05-06 15:22 33.01554 23.46700 36114 ft 407 kts 262°
2026-05-06 15:22 33.00633 23.40052 36115 ft 407 kts 262°
2026-05-06 15:23 32.99725 23.33397 36113 ft 406 kts 263°
2026-05-06 15:23 32.98978 23.26727 36116 ft 406 kts 264°
2026-05-06 15:24 32.98264 23.20051 36112 ft 406 kts 264°
2026-05-06 15:24 32.97532 23.13371 36105 ft 406 kts 264°
2026-05-06 15:25 32.96785 23.06699 36113 ft 406 kts 264°
2026-05-06 15:25 32.96031 23.00026 36112 ft 407 kts 264°
2026-05-06 15:26 32.95276 22.93381 36109 ft 407 kts 264°
2026-05-06 15:26 32.94514 22.86699 36108 ft 407 kts 264°
2026-05-06 15:27 32.93749 22.80028 36105 ft 407 kts 264°
2026-05-06 15:27 32.92984 22.73385 36106 ft 407 kts 264°
2026-05-06 15:28 32.92211 22.66712 36107 ft 407 kts 264°
2026-05-06 15:28 32.91435 22.60041 36109 ft 407 kts 264°
2026-05-06 15:29 32.90655 22.53366 36107 ft 407 kts 264°
2026-05-06 15:29 32.89882 22.46786 36094 ft 396 kts 264°
2026-05-06 15:30 32.89127 22.40368 36100 ft 393 kts 264°
2026-05-06 15:30 32.88745 22.37139 35870 ft 395 kts 264°
2026-05-06 15:30 32.88364 22.33926 35557 ft 390 kts 264°
2026-05-06 15:30 32.87894 22.30761 35155 ft 388 kts 257°
2026-05-06 15:31 32.86765 22.27846 34639 ft 395 kts 234°
2026-05-06 15:31 32.84696 22.25672 34143 ft 403 kts 211°
2026-05-06 15:31 32.82046 22.24539 33707 ft 408 kts 194°
2026-05-06 15:32 32.76371 22.24173 32815 ft 402 kts 198°
2026-05-06 15:32 32.73916 22.22837 32318 ft 389 kts 223°
2026-05-06 15:32 32.72210 22.20440 31879 ft 376 kts 248°
2026-05-06 15:32 32.71555 22.17492 31468 ft 368 kts 268°
2026-05-06 15:33 32.71483 22.14475 31106 ft 364 kts 270°
2026-05-06 15:33 32.71362 22.11476 30697 ft 364 kts 264°
2026-05-06 15:33 32.70780 22.08547 30272 ft 367 kts 249°
2026-05-06 15:33 32.69345 22.06042 29816 ft 373 kts 226°
2026-05-06 15:34 32.67281 22.04216 29439 ft 373 kts 216°
2026-05-06 15:34 32.65103 22.02552 29007 ft 370 kts 218°
2026-05-06 15:34 32.63086 22.00682 28541 ft 365 kts 228°
2026-05-06 15:34 32.61587 21.98318 28056 ft 356 kts 249°
2026-05-06 15:35 32.61082 21.95505 27619 ft 347 kts 272°
2026-05-06 15:35 32.61307 21.92671 27276 ft 343 kts 279°
2026-05-06 15:35 32.61707 21.89890 26874 ft 341 kts 281°
2026-05-06 15:35 32.62124 21.87118 26461 ft 340 kts 281°
2026-05-06 15:36 32.62510 21.84356 26082 ft 338 kts 279°
2026-05-06 15:36 32.62847 21.81631 25714 ft 337 kts 278°
2026-05-06 15:36 32.63141 21.78864 25273 ft 337 kts 277°
2026-05-06 15:36 32.63385 21.76107 24942 ft 335 kts 276°
2026-05-06 15:37 32.63578 21.73356 24602 ft 333 kts 275°
2026-05-06 15:37 32.63718 21.70617 24273 ft 331 kts 274°
2026-05-06 15:37 32.63715 21.67893 23949 ft 330 kts 268°
2026-05-06 15:37 32.63472 21.65188 23624 ft 329 kts 263°
2026-05-06 15:38 32.63011 21.62531 23233 ft 329 kts 258°
2026-05-06 15:38 32.62400 21.59956 22864 ft 327 kts 255°
2026-05-06 15:38 32.61676 21.57398 22512 ft 326 kts 253°
2026-05-06 15:38 32.60888 21.54881 22155 ft 324 kts 252°
2026-05-06 15:39 32.60065 21.52402 21821 ft 322 kts 251°
2026-05-06 15:39 32.59222 21.49944 21478 ft 320 kts 250°
2026-05-06 15:39 32.58369 21.47507 21131 ft 319 kts 250°
2026-05-06 15:39 32.57512 21.45087 20799 ft 317 kts 250°
2026-05-06 15:40 32.56665 21.42711 20459 ft 316 kts 250°
2026-05-06 15:40 32.55805 21.40307 20130 ft 314 kts 249°
2026-05-06 15:40 32.54952 21.37930 19791 ft 313 kts 249°
2026-05-06 15:40 32.54100 21.35560 19478 ft 311 kts 249°
2026-05-06 15:41 32.53260 21.33227 19151 ft 310 kts 249°
2026-05-06 15:41 32.52412 21.30873 18822 ft 309 kts 249°
2026-05-06 15:41 32.51567 21.28529 18487 ft 309 kts 249°
2026-05-06 15:41 32.50721 21.26187 18131 ft 308 kts 249°
2026-05-06 15:42 32.49890 21.23887 17765 ft 306 kts 249°
2026-05-06 15:42 32.49052 21.21569 17434 ft 305 kts 249°
2026-05-06 15:42 32.48217 21.19261 17098 ft 303 kts 249°
2026-05-06 15:42 32.47388 21.16970 16774 ft 301 kts 249°
2026-05-06 15:43 32.46564 21.14697 16459 ft 300 kts 248°
2026-05-06 15:43 32.45744 21.12435 16138 ft 298 kts 248°
2026-05-06 15:43 32.44928 21.10186 15822 ft 297 kts 248°
2026-05-06 15:43 32.44115 21.07946 15507 ft 296 kts 248°
2026-05-06 15:44 32.43305 21.05715 15186 ft 294 kts 248°
2026-05-06 15:44 32.42506 21.03517 14871 ft 294 kts 248°
2026-05-06 15:44 32.41699 21.01297 14565 ft 293 kts 248°
2026-05-06 15:44 32.40895 20.99089 14244 ft 292 kts 248°
2026-05-06 15:45 32.40089 20.96876 13921 ft 292 kts 248°
2026-05-06 15:45 32.39284 20.94668 13570 ft 292 kts 248°
2026-05-06 15:45 32.38481 20.92466 13231 ft 291 kts 248°
2026-05-06 15:45 32.37681 20.90271 12905 ft 290 kts 248°
2026-05-06 15:46 32.36883 20.88086 12584 ft 289 kts 248°
2026-05-06 15:46 32.36087 20.85906 12274 ft 287 kts 248°
2026-05-06 15:46 32.35293 20.83736 11965 ft 287 kts 248°
2026-05-06 15:46 32.34501 20.81572 11647 ft 286 kts 248°
2026-05-06 15:47 32.33722 20.79442 11331 ft 285 kts 248°
2026-05-06 15:47 32.32937 20.77296 11021 ft 284 kts 248°
2026-05-06 15:47 32.32154 20.75158 10716 ft 283 kts 247°
2026-05-06 15:47 32.31371 20.73025 10415 ft 282 kts 247°
2026-05-06 15:48 32.30594 20.70909 10200 ft 277 kts 247°
2026-05-06 15:48 32.29823 20.68844 10021 ft 272 kts 246°
2026-05-06 15:48 32.29025 20.66819 9694 ft 272 kts 245°
2026-05-06 15:48 32.28217 20.64797 9384 ft 271 kts 245°
2026-05-06 15:49 32.27413 20.62788 9095 ft 270 kts 245°
2026-05-06 15:49 32.26880 20.61458 8904 ft 269 kts 245°
2026-05-06 15:49 32.26081 20.59458 8620 ft 267 kts 244°
2026-05-06 15:49 32.25290 20.57480 8322 ft 266 kts 244°
2026-05-06 15:50 32.24498 20.55496 8006 ft 267 kts 244°
2026-05-06 15:50 32.23716 20.53535 7718 ft 267 kts 244°
2026-05-06 15:50 32.22925 20.51552 7435 ft 266 kts 244°
2026-05-06 15:50 32.22139 20.49580 7146 ft 266 kts 244°
2026-05-06 15:51 32.21351 20.47606 6870 ft 265 kts 244°
2026-05-06 15:51 32.20564 20.45637 6604 ft 265 kts 243°
2026-05-06 15:51 32.19778 20.43671 6297 ft 265 kts 243°
2026-05-06 15:51 32.18989 20.41698 6007 ft 266 kts 243°
2026-05-06 15:52 32.18205 20.39738 5698 ft 261 kts 243°
2026-05-06 15:52 32.17439 20.37822 5403 ft 254 kts 242°
2026-05-06 15:52 32.16693 20.35955 5138 ft 248 kts 242°
2026-05-06 15:52 32.15967 20.34142 4852 ft 241 kts 242°
2026-05-06 15:53 32.15257 20.32372 4608 ft 237 kts 241°
2026-05-06 15:53 32.14559 20.30634 4369 ft 237 kts 242°